This is the latest recevied weather packets stored in our database for station/object KY4OP-13. If no packets are shown the sender has not sent any weather packets the latest 1 day(s).
| Time | Temp. | Humidity | Pressure | Rain* | Wind** | Luminosity | Snow |
|---|---|---|---|---|---|---|---|
| 1836274708 | 17.78° C | 93% | 1020.7 hPa | 0 mm | 0 m/s | - | - |
| 1836274560 | 17.78° C | 92% | 1020.9 hPa | 0 mm | 0 m/s | - | - |
| 1836274406 | 17.78° C | 93% | 1020.7 hPa | 0 mm | 0 m/s | - | - |
| 1836274259 | 17.78° C | 92% | 1020.8 hPa | 0 mm | 0 m/s | - | - |
| 1836274104 | 17.78° C | 93% | 1020.8 hPa | 0 mm | 0 m/s | - | - |
| 1778031055 | 21.67° C | 44% | 1013.1 hPa | 0 mm | 0.89 m/s, 231° | - | - |
| 1778030751 | 21.67° C | 43% | 1013.1 hPa | 0 mm | 0 m/s | - | - |
| 1778030448 | 21.67° C | 44% | 1013.1 hPa | 0 mm | 1.79 m/s, 189° | - | - |
| 1778030147 | 21.67° C | 43% | 1013 hPa | 0 mm | 1.34 m/s, 231° | - | - |
| 1778029842 | 21.67° C | 43% | 1013.1 hPa | 0 mm | 0.45 m/s, 208° | - | - |
| 1778029542 | 21.67° C | 44% | 1013 hPa | 0 mm | 0.45 m/s, 219° | - | - |
| 1778029238 | 21.11° C | 44% | 1013 hPa | 0 mm | 1.79 m/s, 219° | - | - |
| 1778028935 | 21.67° C | 44% | 1012.9 hPa | 0 mm | 0 m/s | - | - |
| 1778028631 | 22.22° C | 43% | 1012.8 hPa | 0 mm | 0 m/s | - | - |
| 1778028328 | 22.22° C | 41% | 1012.7 hPa | 0 mm | 0.89 m/s, 198° | - | - |
| 1778028025 | 22.78° C | 41% | 1012.7 hPa | 0 mm | 0.89 m/s, 207° | - | - |
| 1778027721 | 22.78° C | 40% | 1012.6 hPa | 0 mm | 0.89 m/s, 223° | - | - |
| 1778027417 | 22.78° C | 41% | 1012.5 hPa | 0 mm | 0.89 m/s, 224° | - | - |
| 1778027114 | 23.33° C | 40% | 1012.5 hPa | 0 mm | 1.34 m/s, 225° | - | - |
| 1778026809 | 23.33° C | 38% | 1012.4 hPa | 0 mm | 1.79 m/s, 223° | - | - |
| 1778026506 | 23.33° C | 38% | 1012.5 hPa | 0 mm | 0.45 m/s, 194° | - | - |
| 1778026203 | 23.89° C | 39% | 1012.2 hPa | 0 mm | 0.45 m/s, 210° | - | - |
| 1778025901 | 23.89° C | 38% | 1012.4 hPa | 0 mm | 1.34 m/s, 202° | - | - |
| 1778025597 | 23.89° C | 37% | 1012.2 hPa | 0 mm | 1.79 m/s, 243° | - | - |
| 1778025296 | 23.89° C | 37% | 1012.4 hPa | 0 mm | 0.89 m/s, 241° | - | - |
* Rain latest hour (hover to see other rain measurements)
** Current wind speed in m/s (hover to see current wind gust speed)